Weather History for KFWZ - October, 2013

Change the Weather History Date:

Thursday, October 3, 2013

  Actual Average (KLND) Record (KLND)
Temperature  
Mean Temperature 28 °F 51 °F  
Max Temperature 33 °F 64 °F 86 °F (2010)
Min Temperature 24 °F 37 °F 10 °F (1891)
Degree Days  
Heating Degree Days 36 14  
Month to date heating degree days 42  
Since 1 July heating degree days 301  
Cooling Degree Days 0 0  
Month to date cooling degree days 0  
Year to date cooling degree days 472  
Moisture  
Dew Point 30 °F    
Average Humidity 97    
Maximum Humidity 100    
Minimum Humidity 87    
Precipitation  
Precipitation 0.00 in 0.05 in 1.32 in (1908)
Month to date precipitation 0.15  
Year to date precipitation 10.08  
Snow  
Snow 0.00 in 0.20 in - ()
Month to date snowfall 0.7  
Since 1 July snowfall 3.4  
Since 1 September snowfall 3.4  
Snow Depth -    
Sea Level Pressure  
Sea Level Pressure 29.84 in    
Wind  
Wind Speed 7 mph (WNW)    
Max Wind Speed 20 mph    
Max Gust Speed 24 mph    
Visibility 4 miles    
Events Fog , Snow    
T = Trace of Precipitation, MM = Missing Value Source: NWS Daily Summary

Daily Weather History Graph

Daily Weather History Graph

Search for Another Location

Airport or City:

Trip Planner

Search our weather history database for the weather conditions in past years. The results will help you decide how hot, cold, wet, or windy it might be!

Date:

Astronomy

Oct. 03, 2013 Rise Set
Actual Time 7:14 AM MDT 6:52 PM MDT
Civil Twilight 6:46 AM MDT 7:20 PM MDT
Nautical Twilight 6:14 AM MDT 7:53 PM MDT
Astronomical Twilight 5:41 AM MDT 8:25 PM MDT
Moon 5:50 AM MDT (10/3) 6:03 PM MDT (10/3)
Length of Visible Light 12h 33m
Length of Day
11h 37m
Waning Crescent, 2% of the Moon is Illuminated
Oct 3
Waning Crescent
Oct 4
New
Oct 11
First Quarter
Oct 18
Full
Oct 26
Last Quarter

Hourly Weather History & Observations

Time (MDT) Temp. Windchill Dew Point Humidity Pressure Visibility Wind Dir Wind Speed Gust Speed Precip Events Conditions
12:15 AM 33.8 °F - 33.8 °F 100% 29.96 in 0.8 mi Calm Calm - N/A Snow Light Snow
12:35 AM 33.8 °F - 33.8 °F 100% 29.94 in 0.5 mi Calm Calm - N/A Snow Heavy Snow
12:55 AM 33.8 °F 27.0 °F 33.8 °F 100% 29.92 in 0.5 mi NNW 8.1 mph - N/A Snow Snow
1:15 AM 33.8 °F 28.6 °F 33.8 °F 100% 29.91 in 0.5 mi West 5.8 mph - N/A Snow Snow
1:35 AM 33.8 °F - 33.8 °F 100% 29.90 in 1.0 mi Calm Calm - N/A Snow Light Snow
1:55 AM 33.8 °F - 33.8 °F 100% 29.88 in 1.0 mi Calm Calm - N/A Snow Light Snow
2:15 AM 32.0 °F 26.4 °F 32.0 °F 100% 29.88 in 0.2 mi SSE 5.8 mph - N/A Snow Light Snow
2:35 AM 32.0 °F 26.4 °F 32.0 °F 100% 29.87 in 0.2 mi South 5.8 mph - N/A Fog Fog
2:55 AM 32.0 °F 28.7 °F 32.0 °F 100% 29.86 in 0.2 mi SSW 3.5 mph - N/A Fog Fog
3:15 AM 32.0 °F 26.4 °F 32.0 °F 100% 29.85 in 0.5 mi WSW 5.8 mph - N/A Fog Fog
3:35 AM 33.8 °F 27.7 °F 33.8 °F 100% 29.84 in 10.0 mi West 6.9 mph - N/A   Overcast
3:55 AM 33.8 °F 27.0 °F 33.8 °F 100% 29.84 in 10.0 mi West 8.1 mph - N/A   Overcast
4:15 AM 32.0 °F - 32.0 °F 100% 29.84 in 0.2 mi Calm Calm - N/A Fog Fog
4:35 AM 32.0 °F 28.7 °F 32.0 °F 100% 29.84 in 0.2 mi WSW 3.5 mph - N/A Snow Light Snow
4:55 AM 32.0 °F 28.7 °F 32.0 °F 100% 29.83 in 1.0 mi West 3.5 mph - N/A   Overcast
5:15 AM 32.0 °F - 32.0 °F 100% 29.83 in 1.0 mi Calm Calm - N/A   Overcast
5:35 AM 32.0 °F - 32.0 °F 100% 29.82 in 0.2 mi Calm Calm - N/A   Light Drizzle
5:55 AM 33.8 °F 27.0 °F 32.0 °F 93% 29.83 in 1.5 mi SSE 8.1 mph - N/A   Mist
6:15 AM 32.0 °F 26.4 °F 32.0 °F 100% 29.81 in 0.2 mi South 5.8 mph - N/A Fog Fog
6:35 AM 32.0 °F 26.4 °F 32.0 °F 100% 29.82 in 0.2 mi South 5.8 mph - N/A Snow Light Snow
6:55 AM 32.0 °F 28.7 °F 32.0 °F 100% 29.81 in 0.2 mi South 3.5 mph - N/A Snow Light Snow
7:15 AM 32.0 °F 26.4 °F 32.0 °F 100% 29.81 in 0.2 mi South 5.8 mph - N/A Snow Heavy Snow
7:35 AM 32.0 °F 28.7 °F 32.0 °F 100% 29.80 in 0.5 mi WSW 3.5 mph - N/A Snow Light Snow
7:55 AM 32.0 °F 24.2 °F 32.0 °F 100% 29.79 in 0.2 mi South 9.2 mph - N/A Snow Light Snow
8:15 AM 32.0 °F 22.5 °F 32.0 °F 100% 29.79 in 0.2 mi South 12.7 mph 17.3 mph N/A Snow Snow
8:35 AM 32.0 °F 22.5 °F 32.0 °F 100% 29.79 in 0.2 mi South 12.7 mph 20.7 mph N/A Snow Snow
8:55 AM 32.0 °F 23.6 °F 32.0 °F 100% 29.79 in 0.2 mi South 10.4 mph - N/A Snow Light Snow
9:15 AM 32.0 °F 23.6 °F 32.0 °F 100% 29.80 in 0.2 mi SSW 10.4 mph 17.3 mph N/A Snow Snow
9:35 AM 32.0 °F 24.8 °F 32.0 °F 100% 29.79 in 0.2 mi SSW 8.1 mph - N/A Snow Snow
9:55 AM 32.0 °F 22.5 °F 32.0 °F 100% 29.79 in 0.2 mi South 12.7 mph 18.4 mph N/A Snow Snow
10:15 AM 32.0 °F 23.6 °F 32.0 °F 100% 29.79 in 0.2 mi South 10.4 mph - N/A Snow Light Snow
10:35 AM 32.0 °F 21.6 °F 32.0 °F 100% 29.79 in 0.2 mi South 15.0 mph 19.6 mph N/A Snow Light Snow
10:55 AM 32.0 °F 22.5 °F 32.0 °F 100% 29.81 in 0.2 mi South 12.7 mph 19.6 mph N/A Snow Snow
11:15 AM 32.0 °F 23.0 °F 32.0 °F 100% 29.81 in 0.2 mi SSW 11.5 mph 18.4 mph N/A Snow Snow
11:35 AM 32.0 °F 22.5 °F 32.0 °F 100% 29.81 in 0.2 mi West 12.7 mph 17.3 mph N/A Snow Snow
11:55 AM 32.0 °F 20.1 °F 32.0 °F 100% 29.82 in 0.8 mi West 19.6 mph 23.0 mph N/A Snow Light Snow
12:15 PM 32.0 °F 22.5 °F 32.0 °F 100% 29.81 in 1.2 mi West 12.7 mph 20.7 mph N/A Snow Light Snow
12:35 PM 32.0 °F 24.2 °F 32.0 °F 100% 29.81 in 10.0 mi West 9.2 mph - N/A   Overcast
12:55 PM 32.0 °F 23.0 °F 28.4 °F 87% 29.81 in 10.0 mi West 11.5 mph 18.4 mph N/A   Overcast
1:15 PM 32.0 °F 22.1 °F 28.4 °F 87% 29.84 in 10.0 mi West 13.8 mph - N/A   Overcast
1:35 PM 32.0 °F 22.5 °F 30.2 °F 93% 29.84 in 1.2 mi WSW 12.7 mph - N/A Snow Light Snow
1:55 PM 32.0 °F 22.5 °F 30.2 °F 93% 29.83 in 0.8 mi West 12.7 mph 17.3 mph N/A Snow Light Snow
2:15 PM 32.0 °F 24.8 °F 28.4 °F 87% 29.83 in 10.0 mi West 8.1 mph - N/A   Overcast
2:35 PM 32.0 °F 23.0 °F 28.4 °F 87% 29.81 in 10.0 mi NW 11.5 mph - N/A   Overcast
2:55 PM 32.0 °F 24.8 °F 28.4 °F 87% 29.81 in 10.0 mi NNE 8.1 mph - N/A   Overcast
3:15 PM 32.0 °F 24.2 °F 32.0 °F 100% 29.83 in 10.0 mi North 9.2 mph - N/A   Overcast
3:35 PM 32.0 °F 24.8 °F 30.2 °F 93% 29.83 in 10.0 mi North 8.1 mph - N/A   Overcast
3:55 PM 32.0 °F 25.6 °F 32.0 °F 100% 29.83 in 2.5 mi North 6.9 mph - N/A Snow Light Snow
4:15 PM 32.0 °F 26.4 °F 32.0 °F 100% 29.84 in 2.0 mi NNE 5.8 mph - N/A Snow Light Snow
4:35 PM 32.0 °F 26.4 °F 30.2 °F 93% 29.86 in 7.0 mi NNE 5.8 mph - N/A   Overcast
4:55 PM 32.0 °F 28.7 °F 30.2 °F 93% 29.88 in 3.0 mi North 3.5 mph - N/A Snow Light Snow
5:15 PM 30.2 °F 22.6 °F 30.2 °F 100% 29.88 in 0.8 mi North 8.1 mph - N/A Snow Light Snow
5:35 PM 30.2 °F 22.6 °F 30.2 °F 100% 29.87 in 1.0 mi North 8.1 mph - N/A Snow Light Snow
5:55 PM 30.2 °F 21.9 °F 30.2 °F 100% 29.86 in 2.0 mi North 9.2 mph - N/A Snow Light Snow
6:15 PM 30.2 °F 21.9 °F 28.4 °F 93% 29.88 in 7.0 mi North 9.2 mph - N/A Snow Light Snow
6:35 PM 28.4 °F 19.1 °F 28.4 °F 100% 29.89 in 10.0 mi North 10.4 mph - N/A   Overcast
6:55 PM 28.4 °F 19.1 °F 28.4 °F 100% 29.90 in 10.0 mi North 10.4 mph - N/A   Overcast
7:15 PM 28.4 °F 18.5 °F 26.6 °F 93% 29.91 in 10.0 mi North 11.5 mph - N/A   Overcast
7:35 PM 28.4 °F 18.5 °F 26.6 °F 93% 29.91 in 10.0 mi North 11.5 mph - N/A   Overcast
7:55 PM 28.4 °F 18.5 °F 26.6 °F 93% 29.91 in 10.0 mi North 11.5 mph - N/A   Overcast
8:15 PM 28.4 °F 18.5 °F 26.6 °F 93% 29.90 in 10.0 mi North 11.5 mph - N/A   Overcast
8:35 PM 28.4 °F 19.7 °F 26.6 °F 93% - 5.0 mi North 9.2 mph - N/A Snow Light Snow
8:55 PM 26.6 °F 15.7 °F 26.6 °F 100% - 7.0 mi North 12.7 mph - N/A   Overcast
9:15 PM 26.6 °F 14.3 °F 26.6 °F 100% - 7.0 mi North 16.1 mph - N/A   Overcast
9:35 PM 26.6 °F 14.3 °F 24.8 °F 93% - 5.0 mi North 16.1 mph 21.9 mph N/A   Overcast
9:55 PM 26.6 °F 14.7 °F 24.8 °F 93% - 7.0 mi North 15.0 mph - N/A   Overcast
10:35 PM 24.8 °F 11.5 °F 23.0 °F 93% - 5.0 mi North 17.3 mph 21.9 mph N/A Snow Light Snow
10:55 PM 24.8 °F 11.5 °F 23.0 °F 93% - 4.0 mi North 17.3 mph 24.2 mph N/A Snow Light Snow
11:15 PM 24.8 °F 13.4 °F 23.0 °F 93% - 5.0 mi North 12.7 mph 19.6 mph N/A Snow Light Snow
11:35 PM 24.8 °F 14.0 °F 23.0 °F 93% - 7.0 mi North 11.5 mph 19.6 mph N/A   Overcast
11:55 PM 24.8 °F 11.9 °F 23.0 °F 93% - 5.0 mi North 16.1 mph 23.0 mph N/A   Overcast